This is the latest recevied weather packets stored in our database for station/object KC1BRV. If no packets are shown the sender has not sent any weather packets the latest 1 day(s).
| Time | Temp. | Humidity | Pressure | Rain* | Wind** | Luminosity | Snow |
|---|---|---|---|---|---|---|---|
| 1777985636 | 17.22° C | 70% | 1012.5 hPa | 0 mm | 0 m/s | 152 W/m² | - |
| 1777985332 | 16.67° C | 72% | 1012.7 hPa | 0 mm | 0.45 m/s, 89° | 298 W/m² | - |
| 1777985029 | 15.56° C | 75% | 1012.6 hPa | 0 mm | 0.45 m/s, 85° | 274 W/m² | - |
| 1777984725 | 15.56° C | 75% | 1012.5 hPa | 0 mm | 0.45 m/s, 99° | 124 W/m² | - |
| 1777984422 | 15.56° C | 76% | 1012.8 hPa | 0 mm | 0 m/s | 169 W/m² | - |
| 1777984118 | 15.56° C | 76% | 1012.6 hPa | 0 mm | 0.45 m/s, 95° | 150 W/m² | - |
| 1777983816 | 15.56° C | 76% | 1012.6 hPa | 0 mm | 0.89 m/s, 156° | 130 W/m² | - |
| 1777983512 | 15° C | 78% | 1012.4 hPa | 0 mm | 0 m/s | 124 W/m² | - |
| 1777983209 | 14.44° C | 78% | 1012.4 hPa | 0 mm | 0 m/s | 140 W/m² | - |
| 1777982905 | 14.44° C | 78% | 1012.5 hPa | 0 mm | 0.45 m/s, 131° | 75 W/m² | - |
| 1777982601 | 14.44° C | 79% | 1012.5 hPa | 0 mm | 0.45 m/s, 58° | 133 W/m² | - |
| 1777982300 | 14.44° C | 79% | 1012.5 hPa | 0 mm | 0 m/s | 99 W/m² | - |
| 1777981997 | 13.89° C | 80% | 1012.4 hPa | 0 mm | 0.45 m/s, 105° | 172 W/m² | - |
| 1777981695 | 13.89° C | 80% | 1012.5 hPa | 0 mm | 0 m/s | 81 W/m² | - |
| 1777981391 | 13.89° C | 81% | 1012.2 hPa | 0 mm | 0.89 m/s, 117° | 131 W/m² | - |
| 1777981088 | 13.33° C | 82% | 1012.2 hPa | 0 mm | 0 m/s | 102 W/m² | - |
| 1777980784 | 13.33° C | 83% | 1012.4 hPa | 0 mm | 0.45 m/s, 93° | 77 W/m² | - |
| 1777980480 | 13.33° C | 84% | 1012.2 hPa | 0 mm | 0 m/s | 84 W/m² | - |
| 1777980178 | 12.78° C | 84% | 1012.1 hPa | 0 mm | 0 m/s | 68 W/m² | - |
| 1777979873 | 12.78° C | 85% | 1012.4 hPa | 0 mm | 0.89 m/s, 105° | 69 W/m² | - |
| 1777979569 | 12.78° C | 86% | 1012.4 hPa | 0 mm | 0 m/s | 56 W/m² | - |
| 1777979265 | 12.22° C | 86% | 1012.3 hPa | 0 mm | 0 m/s | 54 W/m² | - |
| 1777978963 | 12.22° C | 87% | 1012.1 hPa | 0 mm | 0 m/s | 52 W/m² | - |
| 1777978659 | 11.67° C | 89% | 1012.2 hPa | 0 mm | 0 m/s | 51 W/m² | - |
| 1777978355 | 11.11° C | 90% | 1011.9 hPa | 0 mm | 0 m/s | 43 W/m² | - |
* Rain latest hour (hover to see other rain measurements)
** Current wind speed in m/s (hover to see current wind gust speed)